Beaufort, NC

8:33 PM EST on December 06, 2019 (GMT -0500)
Smith

Weather History for KMRH - October, 2019

Change the Weather History Date:

Monday, October 21, 2019

  Actual Average Record
Temperature  
Mean Temperature 62 °F -  
Max Temperature 66 °F 73 °F 83 °F (1965)
Min Temperature 60 °F 50 °F 34 °F (1974)
Degree Days  
Heating Degree Days 3    
Growing Degree Days 12 (Base 50)    
Moisture  
Dew Point 59 °F    
Average Humidity 88    
Maximum Humidity 94    
Minimum Humidity 81    
Precipitation  
Precipitation 0.00 in - - ()
Sea Level Pressure  
Sea Level Pressure 30.03 in    
Wind  
Wind Speed 12 mph (North)    
Max Wind Speed 18 mph    
Max Gust Speed 24 mph    
Visibility 10 miles    
Events      
Averages and records for this station are not official NWS values.
T = Trace of Precipitation, MM = Missing Value Source: NWS Daily Summary

Daily Weather History Graph

Daily Weather History Graph

Search for Another Location

Airport or City:

Astronomy

Oct. 21, 2019 Rise Set
Actual Time 7:17 AM EDT 6:24 PM EDT
Civil Twilight 6:51 AM EDT 6:50 PM EDT
Nautical Twilight 6:22 AM EDT 7:19 PM EDT
Astronomical Twilight 5:52 AM EDT 7:49 PM EDT
Moon No Moon Rise 2:25 PM EDT (10/21)
Length of Visible Light 11h 58m
Length of Day
11h 07m
Waning Gibbous, 48% of the Moon is Illuminated
Oct 21
Waning Gibbous
Oct 27
New
Nov 4
First Quarter
Nov 12
Full
Nov 19
Last Quarter

Hourly Weather History & Observations

Time (EDT) Temp. Dew Point Humidity Pressure Visibility Wind Dir Wind Speed Gust Speed Precip Events Conditions
12:58 AM 61.0 °F 59.0 °F 93% 29.91 in 10.0 mi NW 15.0 mph - N/A   Overcast
1:58 AM 61.0 °F 57.9 °F 90% 29.93 in 10.0 mi NNW 18.4 mph - N/A   Overcast
2:31 AM 61.0 °F 59.0 °F 93% 29.93 in 10.0 mi NW 16.1 mph - N/A   Overcast
2:53 AM 60.8 °F 59.0 °F 94% 29.93 in 10.0 mi NNW 17.3 mph - N/A   Overcast
2:58 AM 61.0 °F 59.0 °F 93% 29.93 in 10.0 mi NNW 15.0 mph - N/A   Overcast
3:40 AM 61.0 °F 57.9 °F 90% 29.93 in 10.0 mi NNW 16.1 mph - N/A   Overcast
3:58 AM 61.0 °F 57.9 °F 90% 29.94 in 10.0 mi NNW 17.3 mph - N/A   Overcast
4:44 AM 61.0 °F 57.9 °F 90% 29.95 in 10.0 mi North 16.1 mph 24.2 mph N/A   Overcast
4:58 AM 61.0 °F 57.9 °F 90% 29.96 in 10.0 mi North 9.2 mph - N/A   Overcast
5:58 AM 61.0 °F 57.9 °F 90% 29.98 in 10.0 mi North 12.7 mph - N/A   Overcast
6:32 AM 60.1 °F 57.9 °F 93% 29.99 in 10.0 mi North 13.8 mph 18.4 mph N/A   Overcast
6:49 AM 60.1 °F 57.0 °F 90% 29.99 in 10.0 mi North 11.5 mph - N/A   Overcast
6:58 AM 60.1 °F 57.0 °F 90% 30.00 in 10.0 mi North 12.7 mph - N/A   Overcast
7:58 AM 60.1 °F 57.9 °F 93% 30.02 in 10.0 mi North 8.1 mph - N/A   Overcast
8:16 AM 60.1 °F 57.9 °F 93% 30.03 in 10.0 mi North 9.2 mph - N/A   Overcast
8:58 AM 61.0 °F 57.9 °F 90% 30.05 in 10.0 mi North 8.1 mph - N/A   Overcast
9:20 AM 61.0 °F 57.9 °F 90% 30.05 in 10.0 mi North 5.8 mph - N/A   Overcast
9:58 AM 61.0 °F 57.9 °F 90% 30.06 in 10.0 mi NNW 10.4 mph - N/A   Overcast
10:14 AM 61.0 °F 57.9 °F 90% 30.07 in 10.0 mi NNW 8.1 mph - N/A   Overcast
10:58 AM 62.1 °F 59.0 °F 90% 30.07 in 10.0 mi North 6.9 mph - N/A   Overcast
11:21 AM 62.1 °F 57.9 °F 86% 30.08 in 10.0 mi North 10.4 mph - N/A   Overcast
11:58 AM 64.0 °F 59.0 °F 84% 30.08 in 10.0 mi North 5.8 mph - N/A   Overcast
12:58 PM 64.0 °F 59.0 °F 84% 30.08 in 10.0 mi North 9.2 mph - N/A   Overcast
1:58 PM 64.0 °F 59.0 °F 84% 30.06 in 10.0 mi North 8.1 mph - N/A   Overcast
2:49 PM 64.9 °F 60.1 °F 84% 30.05 in 10.0 mi North 8.1 mph - N/A   Overcast
2:58 PM 64.9 °F 59.0 °F 81% 30.05 in 10.0 mi North 10.4 mph - N/A   Overcast
3:58 PM 64.9 °F 59.0 °F 81% 30.07 in 10.0 mi North 6.9 mph - N/A   Overcast
4:58 PM 64.9 °F 59.0 °F 81% 30.07 in 10.0 mi NNE 5.8 mph - N/A   Overcast
5:14 PM 64.0 °F 59.0 °F 84% 30.07 in 10.0 mi NNE 5.8 mph - N/A   Overcast
5:58 PM 64.0 °F 59.0 °F 84% 30.07 in 10.0 mi NE 6.9 mph - N/A   Overcast
6:39 PM 63.0 °F 59.0 °F 87% 30.07 in 10.0 mi NNE 4.6 mph - N/A   Overcast
6:58 PM 64.0 °F 59.0 °F 84% 30.07 in 10.0 mi East 3.5 mph - N/A   Overcast
7:58 PM 63.0 °F 59.0 °F 87% 30.09 in 10.0 mi NE 3.5 mph - N/A   Overcast
8:58 PM 63.0 °F 59.0 °F 87% 30.09 in 10.0 mi East 4.6 mph - N/A   Overcast
9:58 PM 63.0 °F 59.0 °F 87% 30.08 in 10.0 mi NE 5.8 mph - N/A   Overcast
10:58 PM 63.0 °F 60.1 °F 90% 30.09 in 10.0 mi Calm Calm - N/A   Overcast
11:58 PM 63.0 °F 60.1 °F 90% 30.09 in 10.0 mi North 3.5 mph - N/A   Overcast